Regional Weather Roundup
Issued by NWS

Home | Current Version | Previous Version | Graphics & Text | Print | Product List | Glossary On
Versions: 1 2 3 4 5 6 7 8 9 10 11 12 13 14 15 16 17 18 19 20 21 22 23 24 25 26 27 28 29 30 31 32 33 34 35 36 37 38 39 40 41 42 43 44 45 46 47 48 49 50
000
ASUS43 KMKX 281021
RWRWI

WISCONSIN REGIONAL WEATHER ROUNDUP
NATIONAL WEATHER SERVICE MILWAUKEE/SULLIVAN WI
500 AM CDT SUN AUG 28 2016

NOTE: "FAIR" INDICATES FEW OR NO CLOUDS BELOW 12,000 FEET WITH NO
SIGNIFICANT WEATHER AND/OR OBSTRUCTIONS TO VISIBILITY.

WIZ001-002-006>008-014>016-023>028-281100-
NORTHWEST WISCONSIN

CITY           SKY/WX    TMP DP  RH WIND       PRES   REMARKS
SUPERIOR ARPT  CLOUDY    58  58 100 SW3       30.12R
ASHLAND        CLOUDY    60  60 100 W6        30.14R
HAYWARD        CLOUDY    62  60  93 SW6       30.15R
SIREN          CLOUDY    60  60  98 CALM      30.13S FOG
CUMBERLAND     FOG       59  57  94 CALM      30.14R VSB 1/4
RICE LAKE      FOG       60  58  96 CALM      30.15S VSB<1/4
CHETEK         NOT AVBL
LADYSMITH      FOG       59  58  96 CALM      30.16R VSB<1/4
EAU CLAIRE     CLOUDY    62  62 100 CALM      30.13R FOG
MENOMONIE      FOG       61  61 100 CALM      30.13S VSB 1/2
NEW RICHMOND   FOG       60  60 100 E3        30.13S VSB 1/4
OSCEOLA        FOG       61  61 100 CALM      30.15S VSB 1/4
$$

WIZ003>005-009-010-017-018-281100-
NORTH CENTRAL WISCONSIN

CITY           SKY/WX    TMP DP  RH WIND       PRES   REMARKS
MANITOWISH WTR NOT AVBL
ARBOR VITAE    CLOUDY    62  60  95 CALM      30.15R
WOODRUFF       CLOUDY    62  60  95 CALM      30.15R
RHINELANDER    CLOUDY    63  63 100 W5        30.15R
EAGLE RIVER    MOCLDY    58  58 100 W3        30.14R
LAND O LAKES   CLOUDY    62  61  97 CALM      30.15R
PHILLIPS       CLOUDY    59  59 100 CALM      30.15R FOG
TOMAHAWK       CLOUDY    58  57  96 CALM      30.15R FOG
MEDFORD        CLOUDY    60  60 100 W3        30.15R FOG
MERRILL        CLOUDY    61  61 100 CALM      30.15R
$$

WIZ029-030-035-036-043>047-281100-
CENTRAL WISCONSIN

CITY           SKY/WX    TMP DP  RH WIND       PRES   REMARKS
WAUSAU         MOCLDY    62  60  93 W5        30.14R
MOSINEE        PTCLDY    59  59 100 W5        30.16S
MARSHFIELD     FOG       63  60  90 CALM      30.15R VSB 1/4
STEVENS POINT  MOCLDY    62  62  99 CALM      30.16R
WAUPACA        CLOUDY    65  64  98 CALM      30.15R FOG
WAUTOMA        CLOUDY    65  64  97 W6        30.15R
WISC RAPIDS    CLOUDY    65  65 100 NW3       30.16S
CAMP DOUGLAS   CLOUDY    66  66  99 W1        30.13S
$$

WIZ011>013-019>022-031-037>040-048>050-281100-
NORTHEAST WISCONSIN

CITY           SKY/WX    TMP DP  RH WIND       PRES   REMARKS
ANTIGO         PTCLDY    59  59 100 W3        30.15R
SHAWANO        MOCLDY    65  63  94 CALM      30.14S
OCONTO         NOT AVBL
STURGEON BAY   CLOUDY    64  63  96 W3        30.15R
GREEN BAY      CLOUDY    63  63 100 MISG      30.15R
MANITOWOC      CLOUDY    64  63  94 W3        30.16R FOG
APPLETON       CLOUDY    63  63 100 CALM      30.14R
CLINTONVILLE   PTCLDY    61  61 100 S3        30.14S FOG
OSHKOSH        CLOUDY    63  63 100 NW6       30.15R FOG
$$

WIZ032>034-041-042-053>061-281100-
SOUTHWEST WISCONSIN

CITY           SKY/WX    TMP DP  RH WIND       PRES   REMARKS
LA CROSSE      CLOUDY    67  67 100 S5        30.12R FOG
SPARTA         FOG       64  64 100 CALM      30.14S VSB 3/4
VIROQUA        CLOUDY    62  62 100 CALM      30.15R VSB<1/4
BOSCOBEL       FOG       63  63 100 CALM      30.13S VSB 1/4
PRAIRIE DU CHI FOG       63  61  96 SE3       30.13R VSB 1/4
PLATTEVILLE    CLEAR     63  63 100 CALM      30.15S
$$

WIZ056-057-062-063-064-067-068-281100-
SOUTH CENTRAL WISCONSIN

CITY           SKY/WX    TMP DP  RH WIND       PRES   REMARKS
REEDSBURG      NOT AVBL
BARABOO/DELLS  FOG       61  59  95 CALM      30.15R VSB<1/4
LONE ROCK      FOG       63  62  97 CALM      30.14R VSB 1/4
MINERAL POINT  FOG       61  61 100 SE3       30.15R VSB 1/2
MADISON        FOG       65  65 100 CALM      30.14R VSB 1/4
MIDDLETON      CLOUDY    60  60 100 CALM      30.15S VSB 1/4
WATERTOWN      FOG       63  63 100 CALM      30.14S VSB 1/4
MONROE         FOG       64  64 100 SE3       30.15R VSB 1/2
JANESVILLE     FOG       64  64 100 CALM      30.14R VSB 1/2
$$

WIZ051-052-058>065-066-070>072-281100-
SOUTHEAST WISCONSIN

CITY           SKY/WX    TMP DP  RH WIND       PRES   REMARKS
MILWAUKEE      PTCLDY    65  63  93 CALM      30.14R FOG
WAUKESHA       FOG       61  61 100 CALM      30.16R VSB 1/4
MILWAUKEE/TIMM FOG       63  59  88 CALM      30.15R VSB 1/2
RACINE         CLOUDY    66  65  96 CALM      30.16R FOG
BURLINGTON     FOG       63  63  99 CALM      30.15R VSB<1/4
KENOSHA        FOG       66  65  96 CALM      30.15R VSB 1/4
FOND DU LAC    FOG       64  63  96 CALM      30.16R VSB 1/4
SHEBOYGAN      CLOUDY    63  62  97 W6        30.15R FOG
WEST BEND      FOG       61  61 100 CALM      30.16R VSB 1/2
JUNEAU         FOG       63  63  99 CALM      30.16R VSB<1/4
$$

LSZ147-162-281100-
LAKE SUPERIOR

STATION/POSITION TIME  TEMP    WIND        PRES    WAVE
                       AIR SEA DIR/SP/G            HT/PER
                 (UTC) (F)     (DEG/KT/KT) (MB)    (FT/S)
W MID LAKE BUOY  0950   64 67  290/ 10/ 12 1018.9R   1
DEVILS ISLAND    1000   62     180/  5/  6 1019.7R
PORT WING        0900   57     140/  3/  4 1019.3S
SAXON HARBOR     0900   63     190/  3/  4 1019.3
$$

LMZ867-665-643>646-281100-
LAKE MICHIGAN

STATION/POSITION TIME  TEMP    WIND        PRES    WAVE
                       AIR SEA DIR/SP/G            HT/PER
                 (UTC) (F)     (DEG/KT/KT) (MB)    (FT/S)
CHAMBERS ISLAND  0900   65     220/  5/ 10 1019.3R
S GREEN BAY BUOY 1000   66 71  270/  6/  8 1020.0
N MID LAKE BUOY  0950   67 70  260/ 10/ 14 1019.0R   1/ 3
NORTHPORT PIER   0900   65     270/  3/  6 1019.3R
SISTER BAY       0907   67     320/ 15/ 18   N/A
KEWAUNEE LAKESHO 0900   62      CALM  /  2 1019.4R
SHEBOYGAN LAKESH 1000   62     350/  3/  4 1020.6R
PORT WASHINGTON  0940   62      CALM  /  4 1021.3R
ATWATER BUOY     1000   64     240/  2/  2   N/A
MILWAUKEE LAKESH 0910   64     310/  1/  1   N/A
S MID LAKE BUOY  0950   73 74  350/ 10/ 12 1019.9R   1/ 2
KENOSHA   LAKESH 1000   66     100/  2/  2 1020.7R
$$

TC  - TEMPERATURE IN CELSIUS
VSB - VISIBILITY IN STATUTE MILES
WCI - WIND CHILL INDEX
HX  - HEAT INDEX





USA.gov is the U.S. government's official web portal to all federal, state and local government web resources and services.